Location: Arroyo Retuerta
(40.5469°N, 4.3534°W)
Time: 05:08:17
(UTC+00:00)

Spot 4 - Pass Details

Date: 01 June 2020
Orbit: 703 x 724 km, 98.3° (Epoch: 05 July)

Event Time Altitude Azimuth Distance (km) Brightness Sun altitude
Exits shadow 22:53:28 48° 87° (E) 945 4.3 -24.4°
Maximum altitude 22:53:49 49° 72° (ENE) 932 4.3 -24.4°
Drops below altitude 10° 22:58:30 10° 358° (N) 2,216 7.3 -24.7°
Sets 23:00:50 0° 353° (N) 3,138 8.5 -24.9°
